Broomfield, CO

12:52 PM MDT on May 28, 2017 (GMT -0600)
Jeffco

Weather History for KBJC - October, 2012

Change the Weather History Date:

Tuesday, October 9, 2012

  Actual Average Record
Temperature  
Mean Temperature 48 °F -  
Max Temperature 60 °F 66 °F 84 °F (1999)
Min Temperature 37 °F 42 °F 24 °F (1990)
Degree Days  
Heating Degree Days 16    
Moisture  
Dew Point 26 °F    
Average Humidity 52    
Maximum Humidity 75    
Minimum Humidity 10    
Precipitation  
Precipitation 0.00 in - - ()
Sea Level Pressure  
Sea Level Pressure 30.05 in    
Wind  
Wind Speed 7 mph (North)    
Max Wind Speed 20 mph    
Max Gust Speed 29 mph    
Visibility 13 miles    
Events      
Averages and records for this station are not official NWS values.
T = Trace of Precipitation, MM = Missing Value Source: NWS Daily Summary

Daily Weather History Graph

Daily Weather History Graph

Search for Another Location

Airport or City:

Trip Planner

Search our weather history database for the weather conditions in past years. The results will help you decide how hot, cold, wet, or windy it might be!

Date:

Astronomy

Oct. 09, 2012 Rise Set
Actual Time 7:05 AM MDT 6:29 PM MDT
Civil Twilight 6:38 AM MDT 6:56 PM MDT
Nautical Twilight 6:06 AM MDT 7:27 PM MDT
Astronomical Twilight 5:35 AM MDT 7:58 PM MDT
Moon 12:44 AM MDT (10/9) 2:57 PM MDT (10/9)
Length of Visible Light 12h 18m
Length of Day
11h 24m
Last Quarter, 36% of the Moon is Illuminated
Oct 9
Last Quarter
Oct 15
New
Oct 21
First Quarter
Oct 29
Full
Nov 6
Last Quarter

Hourly Weather History & Observations

Time (MDT) Temp. Windchill Dew Point Humidity Pressure Visibility Wind Dir Wind Speed Gust Speed Precip Events Conditions
12:15 AM 60.8 °F - 3.2 °F 10% 29.89 in 10.0 mi West 19.6 mph 28.8 mph N/A   Clear
12:55 AM 59.0 °F - 5.0 °F 12% 29.89 in 10.0 mi West 5.8 mph - N/A   Clear
1:14 AM 55.4 °F - 6.8 °F 14% 29.90 in 10.0 mi SSW 3.5 mph - N/A   Clear
2:15 AM 55.4 °F - 8.6 °F 15% 29.91 in 10.0 mi NNW 4.6 mph - N/A   Clear
2:35 AM 57.2 °F - 5.0 °F 12% 29.92 in 10.0 mi NNW 4.6 mph - N/A   Clear
2:55 AM 57.2 °F - 5.0 °F 12% 29.92 in 10.0 mi NNW 4.6 mph - N/A   Clear
3:15 AM 48.2 °F - 14.0 °F 25% 29.93 in 10.0 mi NE 11.5 mph - N/A   Clear
3:35 AM 42.8 °F 41.1 °F 21.2 °F 42% 29.95 in 10.0 mi North 3.5 mph - N/A   Clear
3:55 AM 41.0 °F 38.0 °F 23.0 °F 49% 29.95 in 10.0 mi NNE 4.6 mph - N/A   Clear
4:15 AM 41.0 °F 37.1 °F 26.6 °F 57% 29.98 in 10.0 mi West 5.8 mph - N/A   Clear
4:34 AM 39.2 °F 37.0 °F 26.6 °F 61% 29.98 in 10.0 mi WNW 3.5 mph - N/A   Clear
4:49 AM 41.0 °F 38.0 °F 26.6 °F 57% 29.99 in 10.0 mi North 4.6 mph - N/A   Clear
5:05 AM 39.2 °F 35.0 °F 28.4 °F 65% 29.99 in 10.0 mi NNW 5.8 mph - N/A   Clear
5:23 AM 39.2 °F 33.6 °F 28.4 °F 65% 30.00 in 10.0 mi NNW 8.1 mph - N/A   Clear
5:47 AM 39.2 °F 34.2 °F 28.4 °F 65% 30.01 in 20.0 mi North 6.9 mph - N/A   Scattered Clouds
5:53 AM 39.2 °F 33.6 °F 30.2 °F 70% 30.02 in 10.0 mi North 8.1 mph - N/A   Clear
6:47 AM 37.4 °F 33.8 °F 30.2 °F 75% 30.03 in 20.0 mi Variable 4.6 mph - N/A   Scattered Clouds
7:47 AM 39.2 °F 35.0 °F 32.0 °F 75% 30.06 in 15.0 mi NNE 5.8 mph - N/A   Mostly Cloudy
9:45 AM 42.8 °F 38.6 °F 32.0 °F 66% 30.10 in 15.0 mi NNE 6.9 mph - N/A   Mostly Cloudy
10:45 AM 42.8 °F 39.3 °F 32.0 °F 66% 30.11 in 15.0 mi NNE 5.8 mph - N/A   Overcast
11:50 AM 44.6 °F 42.2 °F 32.0 °F 61% 30.10 in 20.0 mi Variable 4.6 mph - N/A   Overcast
12:47 PM 44.6 °F 40.7 °F 32.0 °F 61% 30.10 in 20.0 mi Variable 6.9 mph - N/A   Overcast
1:52 PM 46.4 °F 44.3 °F 32.0 °F 57% 30.10 in 12.0 mi NE 4.6 mph - N/A   Overcast
2:45 PM 46.4 °F 42.9 °F 32.0 °F 57% 30.11 in 12.0 mi Variable 6.9 mph - N/A   Overcast
3:50 PM 46.4 °F 44.3 °F 32.0 °F 57% 30.13 in 15.0 mi NE 4.6 mph - N/A   Overcast
4:46 PM 46.4 °F 43.5 °F 32.0 °F 57% 30.14 in 15.0 mi NE 5.8 mph - N/A   Overcast
5:47 PM 46.4 °F 44.3 °F 32.0 °F 57% 30.16 in 15.0 mi East 4.6 mph - N/A   Overcast
6:47 PM 44.6 °F 43.1 °F 33.8 °F 66% 30.18 in 15.0 mi East 3.5 mph - N/A   Overcast
7:50 PM 44.6 °F 43.1 °F 33.8 °F 66% 30.19 in 15.0 mi East 3.5 mph - N/A   Overcast
8:53 PM 44.6 °F - 33.8 °F 66% 30.21 in 15.0 mi Calm Calm - N/A   Overcast
9:53 PM 44.6 °F - 33.8 °F 66% 30.22 in 15.0 mi Calm Calm - N/A   Overcast
11:10 PM 44.6 °F - 32.0 °F 61% 30.20 in 10.0 mi Calm Calm - N/A   Overcast
11:31 PM 42.8 °F 41.1 °F 32.0 °F 66% 30.19 in 10.0 mi SSE 3.5 mph - N/A   Mostly Cloudy
11:55 PM 42.8 °F - 32.0 °F 66% 30.19 in 10.0 mi Calm Calm - N/A   Mostly Cloudy